#timestamp,LO_Frequency,Hit,StdDev 
1510682415.2,286047001.5,N
1510682435.9,286047005.5,N
1510682455.7,286047003.0,N
1510682475.6,286047001.9,N
1510682495.4,286047002.4,N
1510682515.2,286046998.8,N
1510682535.0,286046997.4,N
1510682536.0,286046997.4,N
1510682555.8,286047000.4,N
1510682575.6,286047000.0,N
1510682595.4,286046999.3,N
1510682615.3,286046997.5,N
1510682635.1,286046999.0,N
1510682655.8,286047000.3,N
1510682675.7,286047002.5,N
1510682695.5,286047000.4,N
1510682715.3,286046998.1,N
1510682735.2,286047000.5,N
1510682755.9,286047000.9,N
1510682775.7,286047001.2,N
1510682795.6,286046991.9,Y
1510682815.4,286046990.1,P
1510682835.2,286046990.2,N
1510682855.1,286046990.7,N
1510682856.0,286046990.7,N
1510682875.8,286046990.0,N
1510682895.6,286046982.2,Y
1510682915.5,286046994.8,P
1510682935.3,286046994.6,P
1510682955.1,286046994.6,P
1510682975.9,286046993.7,Y
1510682995.7,286046998.8,P
1510683015.5,286046996.6,N
1510683035.4,286046999.5,N
1510683055.2,286046994.9,N
1510683075.0,286046995.2,N
1510683075.9,286046995.2,N
1510683095.7,286046996.9,N
1510683115.6,286046998.3,N
1510683135.4,286047000.4,N
1510683155.2,286047001.1,N
1510683175.1,286047000.6,N
1510683176.0,286047000.6,N
1510683195.8,286047000.3,N
1510683215.6,286046999.3,N
1510683235.5,286046992.1,Y
1510683255.3,286046993.6,P
1510683275.1,286046993.5,N
1510683295.9,286046992.4,P
1510683315.7,286046992.9,Y
1510683335.5,286047003.8,P
1510683355.4,286047002.9,N
1510683375.2,286047003.1,N
1510683395.0,286047003.3,N
1510683395.9,286047003.3,N
1510683415.8,286047002.9,N
1510683435.6,286047005.7,N
1510683455.4,286047005.7,N
1510683475.3,286047008.5,N
1510683495.7,286047008.6,N
1510683515.5,286047011.7,Y
1510683535.4,286047008.6,P
1510683555.3,286047006.2,N
1510683575.1,286047009.0,P
1510683576.0,286047009.0,Y
1510683595.8,286046998.8,P
1510683615.7,286046997.4,N
1510683635.5,286046996.3,N
1510683655.3,286046993.7,N
1510683675.1,286046994.0,N
1510683695.9,286046995.1,N
1510683715.7,286046997.7,N
1510683735.5,286046998.6,N
1510683755.4,286046997.7,N
1510683775.2,286046995.7,N
1510683795.0,286046997.3,N
1510683795.9,286046997.3,N
1510683815.8,286046996.8,N
1510683835.6,286046994.6,N
1510683855.4,286046990.9,Y
1510683875.3,286046998.3,P
1510683895.1,286047002.0,P
1510683915.8,286047000.8,N
1510683935.7,286046996.6,N
1510683955.5,286046996.9,N
1510683975.3,286046999.7,N
1510683995.2,286046997.0,N
1510684015.9,286046994.7,N
1510684035.7,286046989.5,Y
1510684055.6,286046993.5,P
1510684075.4,286046995.6,N
1510684095.8,286046999.6,N
1510684115.6,286046994.0,N
1510684135.5,286046993.9,N
1510684155.3,286046994.0,N
1510684175.1,286046994.9,N
1510684195.9,286046993.4,Y
1510684215.7,286046998.6,P
1510684235.5,286046999.2,N
1510684255.4,286046994.5,P
1510684275.2,286046995.3,N
1510684295.0,286046992.8,Y
1510684295.9,286046992.8,P
1510684315.8,286046996.2,N
1510684335.6,286046995.0,N
1510684355.4,286046997.5,N
1510684375.3,286046996.7,N
1510684395.1,286046995.2,Y
1510684415.8,286046998.2,P
1510684435.7,286047000.9,N
1510684455.5,286047000.2,N
1510684475.3,286047002.6,N
1510684495.2,286047001.1,N
1510684515.9,286046997.8,N
1510684535.7,286046999.1,N
1510684555.5,286047001.6,N
1510684575.4,286046999.9,N
1510684595.2,286047000.6,N
1510684615.0,286046999.0,N
1510684615.9,286046999.0,N
1510684635.8,286046995.6,N
1510684655.6,286046999.0,N
1510684675.4,286047000.0,N
1510684695.3,286046997.9,N
1510684715.1,286046991.9,Y
1510684735.8,286046992.7,P
1510684755.7,286046993.8,N
1510684775.5,286046993.8,N
1510684795.3,286046992.7,N
1510684815.2,286046994.6,N
1510684835.9,286046991.5,Y
1510684855.7,286047002.5,P
1510684875.6,286047002.5,N
1510684895.4,286046998.7,N
1510684915.2,286046997.3,N
1510684935.0,286046998.2,N
1510684936.0,286046998.2,N
1510684955.8,286047001.1,N
1510684975.6,286046996.8,N
1510684995.5,286046992.1,Y
1510685015.3,286046994.0,P
1510685035.1,286046994.6,N
1510685055.8,286046993.6,N
1510685075.7,286046993.2,Y
1510685095.5,286046999.2,P
1510685115.3,286046999.5,N
1510685135.2,286046999.9,N
1510685155.0,286047000.3,N
1510685155.9,286047000.3,N
1510685175.7,286046999.3,N
1510685195.6,286047000.3,N
1510685215.4,286046993.4,Y
1510685235.2,286046995.3,P
1510685255.1,286046991.1,P
1510685256.0,286046991.1,N
1510685275.8,286046987.6,Y
1510685295.7,286046995.4,P
1510685315.5,286046994.6,P
1510685335.3,286046991.2,P
1510685355.2,286046993.5,Y
1510685375.9,286046999.8,P
1510685395.7,286047003.2,N
1510685415.5,286047004.0,N
1510685435.4,286047010.8,N
1510685455.2,286047009.2,N
1510685475.0,286047003.9,N
1510685475.9,286047003.9,N
1510685495.8,286047005.3,N
1510685515.6,286047010.6,N
1510685535.4,286047006.0,N
1510685555.3,286047004.7,N
1510685575.1,286047012.3,N
1510685595.8,286047004.5,N
1510685615.7,286047005.7,N
1510685635.5,286047005.3,N
1510685655.3,286047008.8,N
1510685675.2,286047007.5,N
1510685695.9,286047008.4,N
1510685715.7,286047008.6,N
1510685735.6,286047017.7,Y
1510685755.4,286047018.5,P
1510685775.2,286047016.4,N
1510685795.0,286047014.9,N
1510685796.0,286047014.9,Y
1510685815.8,286046995.1,P
1510685835.6,286046990.5,N
1510685855.5,286046990.2,N
1510685875.3,286046991.1,N
1510685895.1,286046994.6,N
1510685915.8,286046993.5,N
1510685935.7,286046994.7,N
1510685955.5,286046993.5,N
1510685975.3,286046989.2,N
1510685995.2,286046988.6,N
